NEUTRON-1 (46923 NORAD) Tracking and Keplerian Element Data

This shows tracking and keplerian element data for the satellite.

Feedback or suggestion? Click here.




ElementValue
Catalog46923
NameNEUTRON-1
Epoch Orbit9333
Epoch Day176.4152633
Epoch Year2022
RAAN243.5264
Inclination51.617
Eccentricity0.0005175
Argument of Perigee317.3043
Mean Anonmoly42.7583
Mean Motion16.46729377
Decay Rate0.12845636
L11 46923U 98067RT 22176.41526330 .12845636 12650-4 26350-3 0 9998
L22 46923 51.6170 243.5264 0005175 317.3043 42.7583 16.46729377 93330



Live tracking and technical data element details for NEUTRON-1 (NORAD 46923). NEUTRON-1 can be tracked NOW for your location showing map with azimuth and elevation plus other details from your city location.







IsCatalogInMostPopularTable: catalog: 46923, numindb: 188
Update: records affected: 1



GetName: 46923 NEUTRON-1

Hit Count: updated at: Thu, 23 Jan 2025 17:48:46 GMT